This demonstration page uses our WeatherBlox Daily Observations layout. Learn more.

Left ArrowRight Arrow

41.12389, -100.76542

Hourly Observations for August 14, 2019

Temp ( °F °C ) Dew Point ( °F °C ) Humidity (%) Winds ( mph kmh ) Pressure ( in mb ) Visibility ( mi km ) Precip ( " mm )
12:53 am 00:53 Clear 59 15 57 13.9 93 93 Calm 30.14 1021 10 16 0.00 0.00
1:53 am 01:53 Clear 59 15 57 13.9 93 93 NW 3 6 30.15 1021 10 16 0.00 0.00
2:53 am 02:53 Clear 58 14.4 57 13.9 97 97 Calm 30.16 1021 10 16 0.00 0.00
3:53 am 03:53 Clear 58 14.4 56 13.3 93 93 Calm 30.16 1021 10 16 0.00 0.00
4:53 am 04:53 Clear 57 13.9 55 12.8 93 93 NE 3 6 30.16 1021 10 16 0.00 0.00
5:53 am 05:53 Mostly Cloudy 57 13.9 55 12.8 93 93 ESE 3 6 30.18 1022 10 16 0.00 0.00
6:19 am 06:19 Mostly Clear 56 13.3 54 12.2 93 93 ESE 3 6 30.19 1022 10 16 0.00 0.00
6:53 am 06:53 Sunny 56 13.3 54 12.2 93 93 E 3 6 30.17 1022 10 16 0.00 0.00
7:53 am 07:53 Sunny 58 14.4 55 12.8 90 90 ESE 5 7 30.18 1022 10 16 0.00 0.00
8:53 am 08:53 Sunny 62 16.7 57 13.9 84 84 ESE 6 9 30.19 1023 10 16 0.00 0.00
9:53 am 09:53 Sunny 67 19.4 57 13.9 71 71 Calm 30.19 1022 10 16 0.00 0.00
10:33 am 10:33 Mostly Cloudy 70 21.1 58 14.4 66 66 ENE 6 9 30.12 1020 10 16 0.00 0.00
10:42 am 10:42 Partly Cloudy 71 21.7 58 14.4 63 63 E 8 13 30.11 1020 10 16 0.00 0.00
10:53 am 10:53 Mostly Sunny 70 21.1 58 14.4 66 66 E 8 13 30.18 1022 10 16 0.00 0.00
11:53 am 11:53 Sunny 73 22.8 59 15 62 62 E 8 13 30.19 1022 10 16 0.00 0.00
12:53 pm 12:53 Partly Cloudy 74 23.3 59 15 60 60 ESE 10 17 30.16 1021 10 16 0.00 0.00
1:33 pm 13:33 Cloudy with Nearby Thunderstorms 70 21.1 60 15.6 71 71 N 7 11 30.13 1020 10 16 0.00 0.00
1:42 pm 13:42 Cloudy with Thunderstorms 67 19.4 57 13.9 71 71 N 13 20 30.17 1022 10 16 0.00 0.00
1:53 pm 13:53 Cloudy with Strong Thunderstorms 62 16.7 57 13.9 84 84 NE 15 24 30.18 1022 7 11 0.02 0.51
2:00 pm 14:00 Cloudy with Thunderstorms 62 16.7 58 14.4 86 86 ENE 12 19 30.14 1021 6 10 0.05 1.27
2:16 pm 14:16 Partly Cloudy with Nearby Thunderstorms 63 17.2 59 15 87 87 E 9 15 30.12 1020 10 16 0.06 1.52
2:24 pm 14:24 Mostly Sunny 64 17.8 60 15.6 87 87 ESE 10 17 30.10 1019 10 16 0.06 1.52
2:53 pm 14:53 Partly Cloudy 70 21.1 62 16.7 76 76 SE 10 17 30.14 1021 10 16 0.06 1.52
3:53 pm 15:53 Cloudy with Light Rain 65 18.3 60 15.6 84 84 E 8 13 30.15 1021 10 16 0.01 0.25
4:00 pm 16:00 Cloudy with Nearby Thunderstorms 65 18.3 60 15.6 84 84 NE 10 17 30.11 1020 10 16 0.00 0.00
4:18 pm 16:18 Cloudy with Thunderstorms 63 17.2 59 15 87 87 NNE 13 20 30.17 1022 6 10 0.08 2.03
4:48 pm 16:48 Mostly Cloudy with Nearby Thunderstorms 63 17 59 15 88 88 SW 12 19 30.10 1019 10 16 0.33 8.38
4:53 pm 16:53 Cloudy with Nearby Thunderstorms 62 16.7 59 15 90 90 SSW 12 19 30.14 1021 10 16 0.33 8.38
5:03 pm 17:03 Mostly Cloudy 63 17.2 60 15.6 90 90 SSW 12 19 30.09 1019 10 16 0.00 0.00
5:53 pm 17:53 Mostly Cloudy 68 20 60 15.6 76 76 S 7 11 30.11 1020 10 16 0.00 0.00
6:53 pm 18:53 Sunny 69 20.6 59 15 70 70 SSE 7 11 30.08 1019 10 16 0.00 0.00
7:53 pm 19:53 Mostly Sunny 68 20 61 16.1 78 78 ESE 6 9 30.08 1019 10 16 0.00 0.00
8:53 pm 20:53 Clear 63 17.2 60 15.6 90 90 E 6 9 30.09 1019 10 16 0.00 0.00
9:53 pm 21:53 Clear 60 15.6 58 14.4 93 93 E 3 6 30.11 1020 10 16 0.00 0.00
10:53 pm 22:53 Clear 58 14.4 56 13.3 93 93 SE 6 9 30.12 1020 10 16 0.00 0.00
11:53 pm 23:53 Clear 57 13.9 56 13.3 96 96 SE 5 7 30.11 1020 10 16 0.00 0.00

Powered by AerisWeather